[[{"header":{"parameterUnit":"m.s-1","parameterCategory":2,"la1":30.2992,"la2":30.254,"lo1":-89.0895,"lo2":-89.0443,"dy":0.0025,"dx":0.0025,"nx":19,"ny":19,"refTime":"2026-03-27T09:00:00:Z","depth":"0","parameterNumber":2,"parameterNumberName":"U-component_of_CURRENTS"},"data":[0,0,0,0.2827,0.2828,0.2873,0.2873,0.2961,0.2962,0,0,0,0,0,0,0,0,0,0,0,0.2809,0.281,0.2827,0.2829,0.2873,0.2873,0.2961,0.2962,0,0,0,0,0,0,0,0,0,0,0,0.2809,0.281,0.281,0.2829,0.2873,0.2873,0.296,0.2917,0,0,0,0,0,0,0,0,0,0,0.287,0.2844,0.281,0.281,0.2829,0.2873,0.2873,0.2915,0.292,0.2952,0,0.2963,0,0.2971,0.2969,0.2969,0,0,0,0.2821,0.284,0.2862,0.281,0.283,0.2873,0.2851,0.2918,0.2924,0.2959,0.2964,0.2968,0.2972,0.297,0.297,0.3089,0.309,0,0,0.2819,0.2809,0.2857,0.2865,0.2848,0.2849,0.2852,0.2921,0.2925,0.2965,0.297,0.2974,0.297,0.2971,0.3089,0.3089,0,0,0,0.2817,0.2807,0.2826,0.2862,0.2871,0.2851,0.2854,0.2922,0.2931,0.297,0.2975,0.2971,0.2972,0.3088,0.3089,0.3144,0,0,0,0.2815,0.2807,0.2825,0.2818,0.287,0.2891,0.2853,0.2926,0.2934,0.2974,0.2971,0.2973,0.3088,0.3089,0.3141,0.318,0,0,0,0.2806,0.2805,0.2814,0.2818,0.2841,0.289,0.2902,0.2927,0.2937,0.297,0.2974,0.3087,0.3088,0.3139,0.3175,0.3267,0,0,0,0.2788,0.281,0.2814,0.2845,0.2841,0.2903,0.2902,0.2939,0.2967,0.2972,0.3088,0.3089,0.3138,0.3173,0.3263,0.3264,0.3282,0,0,0.2807,0.2811,0.2832,0.2838,0.2892,0.2896,0.2965,0.299,0.2997,0.3065,0.3067,0.3142,0.3175,0.3266,0.3331,0.3347,0,0,0,0.2833,0.2843,0.2865,0.2893,0.2938,0.299,0.3008,0.3038,0.3093,0.3021,0.315,0.317,0.3226,0.3218,0.3231,0.3329,0.3094,0.3094,0.3094,0.28,0.284,0.2875,0.2927,0.2977,0.3052,0.311,0.3154,0.3143,0.3175,0.322,0.3335,0.3326,0.3336,0.3436,0.3218,0.3218,0.3219,0.3219,0.2799,0.2819,0.2874,0.2924,0.3001,0.3066,0.3204,0.3228,0.3344,0.3288,0.334,0.3282,0.3353,0.3455,0.3222,0.3222,0.3221,0.3221,0.3221,0.2753,0.2778,0.2802,0.2887,0.2981,0.3096,0.3238,0.3348,0.3401,0.3463,0.3476,0.3475,0.3563,0.3494,0.3494,0.3495,0.3495,0.3496,0.3496,0.27,0.2734,0.277,0.2874,0.2928,0.3077,0.3285,0.3379,0.3524,0.3557,0.3557,0.362,0.3419,0.3407,0.3505,0.3503,0.3502,0.3501,0.3501,0.2684,0.269,0.2746,0.279,0.2924,0.301,0.3226,0.3434,0.357,0.3632,0.3791,0.3618,0.3612,0.36,0.3593,0.3734,0.3734,0.3734,0.3734,0.2661,0.2675,0.2703,0.2743,0.2846,0.2969,0.3081,0.3329,0.3682,0.3863,0.3945,0.3878,0.3864,0.387,0.3852,0.3848,0.4051,0.4051,0.4052,0.2661,0.267,0.2658,0.2683,0.2773,0.2871,0.2957,0.3234,0.3799,0.4076,0.4093,0.4079,0.3987,0.3957,0.3961,0.3928,0.3918,0,0]},{"header":{"parameterUnit":"m.s-1","parameterCategory":2,"la1":30.2992,"la2":30.254,"lo1":-89.0895,"lo2":-89.0443,"dy":0.0025,"dx":0.0025,"nx":19,"ny":19,"refTime":"2026-03-27T09:00:00:Z","depth":"0","parameterNumber":3,"parameterNumberName":"V-component_of_CURRENTS"},"data":[0,0,0,-0.0237,-0.0238,-0.0259,-0.0259,-0.0332,-0.0332,0,0,0,0,0,0,0,0,0,0,0,-0.023,-0.023,-0.0237,-0.0238,-0.0259,-0.0259,-0.0332,-0.0332,0,0,0,0,0,0,0,0,0,0,0,-0.023,-0.023,-0.023,-0.0238,-0.0259,-0.0259,-0.0331,-0.0306,0,0,0,0,0,0,0,0,0,0,-0.0281,-0.0259,-0.023,-0.023,-0.0238,-0.0259,-0.0259,-0.0305,-0.0308,-0.0332,0,-0.0328,0,-0.0329,-0.0337,-0.0338,0,0,0,-0.0247,-0.0256,-0.0266,-0.023,-0.0238,-0.0259,-0.0252,-0.0306,-0.031,-0.0337,-0.0329,-0.0331,-0.033,-0.0338,-0.0338,-0.0313,-0.0312,0,0,-0.0245,-0.0234,-0.0263,-0.0267,-0.0235,-0.0251,-0.0252,-0.0308,-0.0307,-0.0329,-0.0333,-0.0331,-0.0338,-0.0339,-0.0314,-0.0313,0,0,0,-0.0236,-0.0233,-0.0241,-0.0265,-0.0263,-0.0252,-0.0253,-0.0305,-0.0308,-0.0334,-0.0332,-0.0339,-0.034,-0.0315,-0.0314,-0.0199,0,0,0,-0.0236,-0.0227,-0.024,-0.0234,-0.0262,-0.0276,-0.0248,-0.0304,-0.031,-0.0332,-0.0339,-0.034,-0.0316,-0.0314,-0.0204,-0.0128,0,0,0,-0.0231,-0.0227,-0.0227,-0.0233,-0.0238,-0.0275,-0.0282,-0.0305,-0.0309,-0.0338,-0.0341,-0.0316,-0.0314,-0.0208,-0.0136,-0.0079,0,0,0,-0.0222,-0.0187,-0.0227,-0.018,-0.0238,-0.0198,-0.0281,-0.0275,-0.029,-0.0339,-0.0316,-0.0314,-0.021,-0.0142,-0.0084,-0.0009,0.0022,0,0,-0.0166,-0.018,-0.0149,-0.0184,-0.0123,-0.0197,-0.0135,-0.0205,-0.0269,-0.0305,-0.0304,-0.0202,-0.0137,-0.008,0.0107,0.0134,0,0,0,-0.0122,-0.0092,-0.0084,-0.0057,-0.0062,-0.0047,-0.0111,-0.0144,-0.0177,-0.0268,-0.0194,-0.0155,-0.0124,-0.0089,-0.0067,-0.0237,-0.0304,-0.0305,-0.0305,-0.0,-0.0002,0.0061,0.0065,0.0079,0.0056,0.0057,0.0004,-0.0086,-0.0082,-0.0057,0.0077,0.0116,0.0133,-0.0043,-0.0065,-0.0065,-0.0064,-0.0064,0.0126,0.0169,0.017,0.022,0.0216,0.0254,0.0218,0.0164,0.0153,0.006,0.0083,0.0038,0.0164,-0.0033,-0.0057,-0.0058,-0.0059,-0.0059,-0.006,0.0215,0.0231,0.0255,0.0332,0.0395,0.0382,0.0475,0.0405,0.0285,0.031,0.0311,0.0309,0.013,0.0308,0.0308,0.0309,0.0309,0.031,0.031,0.028,0.0308,0.0388,0.0454,0.0521,0.0615,0.0635,0.0637,0.057,0.0469,0.0468,0.0171,0.019,0.0169,0.032,0.0318,0.0317,0.0316,0.0315,0.0385,0.0393,0.0528,0.0603,0.0769,0.0926,0.0921,0.0933,0.0879,0.0851,0.0431,0.0537,0.0507,0.0489,0.0474,0.0695,0.0695,0.0695,0.0695,0.046,0.0469,0.0661,0.0809,0.0988,0.1076,0.1251,0.1211,0.0871,0.0663,0.0489,0.0388,0.038,0.0334,0.0319,0.0296,0.0467,0.0466,0.0466,0.0549,0.0594,0.075,0.088,0.108,0.1248,0.1407,0.1429,0.0892,0.0432,0.0239,0.0249,0.0068,0.0069,-0.0036,-0.0043,-0.0093,0,0]}],[{"header":{"parameterUnit":"m.s-1","parameterCategory":2,"la1":30.2992,"la2":30.254,"lo1":-89.0895,"lo2":-89.0443,"dy":0.0025,"dx":0.0025,"nx":19,"ny":19,"refTime":"2026-03-27T09:00:00:Z","depth":"2","parameterNumber":2,"parameterNumberName":"U-component_of_CURRENTS"},"data":[0,0,0,0.2809,0.281,0.2855,0.2855,0.2944,0.2945,0,0,0,0,0,0,0,0,0,0,0,0.2791,0.2792,0.2809,0.281,0.2855,0.2855,0.2944,0.2945,0,0,0,0,0,0,0,0,0,0,0,0.2791,0.2792,0.2792,0.281,0.2855,0.2855,0.2943,0.29,0,0,0,0,0,0,0,0,0,0,0.2852,0.2827,0.2791,0.2792,0.2811,0.2855,0.2855,0.2897,0.2903,0.2935,0,0.2947,0,0.2954,0.2952,0.2952,0,0,0,0.2803,0.2823,0.2844,0.2792,0.2811,0.2855,0.2832,0.29,0.2906,0.2942,0.2948,0.2951,0.2955,0.2953,0.2953,0.3069,0.3069,0,0,0.28,0.2791,0.284,0.2848,0.283,0.2831,0.2834,0.2903,0.2908,0.2948,0.2953,0.2957,0.2953,0.2954,0.3068,0.3069,0,0,0,0.2798,0.2789,0.2808,0.2844,0.2853,0.2833,0.2836,0.2905,0.2914,0.2954,0.2958,0.2954,0.2955,0.3068,0.3069,0.3125,0,0,0,0.2796,0.2789,0.2807,0.2801,0.2852,0.2874,0.2836,0.2909,0.2917,0.2957,0.2954,0.2957,0.3067,0.3068,0.3123,0.3161,0,0,0,0.2788,0.2788,0.2797,0.28,0.2824,0.2873,0.2885,0.291,0.292,0.2953,0.2957,0.3067,0.3068,0.312,0.3156,0.3244,0,0,0,0.2771,0.2792,0.2797,0.2827,0.2824,0.2882,0.2884,0.2921,0.2949,0.2955,0.3068,0.3069,0.312,0.3154,0.324,0.3212,0.3226,0,0,0.2789,0.2794,0.2814,0.282,0.287,0.2875,0.2941,0.2971,0.2977,0.3045,0.3047,0.3124,0.3156,0.3243,0.3272,0.3285,0,0,0,0.2815,0.2822,0.2844,0.287,0.2914,0.2965,0.2984,0.3016,0.3072,0.3001,0.3129,0.3148,0.3202,0.3176,0.3187,0.3074,0.3073,0.3073,0.3073,0.278,0.2818,0.2849,0.2899,0.2949,0.3025,0.3084,0.3128,0.3119,0.3152,0.3198,0.3308,0.328,0.3288,0.3194,0.3194,0.3195,0.3195,0.3195,0.2776,0.2791,0.2847,0.2895,0.2973,0.3038,0.3176,0.3202,0.3317,0.3264,0.3313,0.324,0.3303,0.32,0.3199,0.3198,0.3198,0.3197,0.3197,0.2724,0.2745,0.2773,0.2859,0.2952,0.307,0.3211,0.3321,0.3375,0.3435,0.3427,0.3424,0.3364,0.3465,0.3466,0.3466,0.3467,0.3467,0.3467,0.2665,0.2699,0.2739,0.2844,0.2901,0.3049,0.3256,0.335,0.348,0.3504,0.3504,0.34,0.3391,0.3381,0.3476,0.3474,0.3473,0.3472,0.3472,0.2645,0.2655,0.2711,0.276,0.2894,0.2939,0.3187,0.3385,0.3519,0.3573,0.3554,0.3549,0.3539,0.3529,0.3522,0.3649,0.3649,0.3649,0.3649,0.2624,0.2637,0.2666,0.2707,0.281,0.288,0.2898,0.2984,0.3234,0.3288,0.3302,0.3182,0.3186,0.3148,0.3146,0.3128,0.3151,0.315,0.3148,0.2633,0.2632,0.2621,0.2637,0.2734,0.2738,0.2621,0.2457,0.2702,0.3113,0.3056,0.3646,0.3506,0.3498,0.3465,0.3452,0.3433,0,0]},{"header":{"parameterUnit":"m.s-1","parameterCategory":2,"la1":30.2992,"la2":30.254,"lo1":-89.0895,"lo2":-89.0443,"dy":0.0025,"dx":0.0025,"nx":19,"ny":19,"refTime":"2026-03-27T09:00:00:Z","depth":"2","parameterNumber":3,"parameterNumberName":"V-component_of_CURRENTS"},"data":[0,0,0,-0.0182,-0.0182,-0.0204,-0.0204,-0.0275,-0.0275,0,0,0,0,0,0,0,0,0,0,0,-0.0175,-0.0175,-0.0182,-0.0182,-0.0204,-0.0204,-0.0275,-0.0275,0,0,0,0,0,0,0,0,0,0,0,-0.0175,-0.0175,-0.0175,-0.0182,-0.0204,-0.0204,-0.0275,-0.025,0,0,0,0,0,0,0,0,0,0,-0.0224,-0.0203,-0.0175,-0.0175,-0.0182,-0.0204,-0.0204,-0.0248,-0.0251,-0.0274,0,-0.0271,0,-0.0272,-0.028,-0.0281,0,0,0,-0.0191,-0.02,-0.021,-0.0175,-0.0183,-0.0204,-0.0197,-0.025,-0.0253,-0.0279,-0.0272,-0.0274,-0.0273,-0.0281,-0.0281,-0.0253,-0.0252,0,0,-0.019,-0.0179,-0.0207,-0.0212,-0.018,-0.0196,-0.0197,-0.0251,-0.0251,-0.0272,-0.0276,-0.0274,-0.0281,-0.0282,-0.0254,-0.0253,0,0,0,-0.0181,-0.0178,-0.0186,-0.0209,-0.0208,-0.0196,-0.0198,-0.0248,-0.0251,-0.0276,-0.0275,-0.0282,-0.0283,-0.0255,-0.0253,-0.0142,0,0,0,-0.018,-0.0172,-0.0185,-0.0179,-0.0206,-0.0221,-0.0194,-0.0248,-0.0254,-0.0275,-0.0282,-0.0283,-0.0256,-0.0254,-0.0147,-0.0072,0,0,0,-0.0175,-0.0172,-0.0172,-0.0178,-0.0184,-0.022,-0.0226,-0.0249,-0.0253,-0.0281,-0.0284,-0.0256,-0.0254,-0.0152,-0.008,-0.0025,0,0,0,-0.0167,-0.0132,-0.0172,-0.0126,-0.0183,-0.0141,-0.0226,-0.0219,-0.0233,-0.0282,-0.0256,-0.0253,-0.0153,-0.0086,-0.003,0.0037,0.0067,0,0,-0.0112,-0.0125,-0.0094,-0.0129,-0.0066,-0.0139,-0.0076,-0.0148,-0.0211,-0.0245,-0.0244,-0.0145,-0.0081,-0.0026,0.0155,0.0181,0,0,0,-0.0068,-0.0036,-0.0028,-0.0,-0.0004,0.0011,-0.0052,-0.0086,-0.012,-0.021,-0.0135,-0.0097,-0.0067,-0.0037,-0.0016,-0.0244,-0.0244,-0.0244,-0.0244,0.0054,0.0054,0.0119,0.0125,0.0138,0.0116,0.0115,0.0062,-0.0028,-0.0024,0.0,0.0132,0.0166,0.0182,-0.0008,-0.0007,-0.0007,-0.0006,-0.0006,0.0181,0.0228,0.0228,0.0279,0.0275,0.0312,0.0276,0.022,0.0208,0.0115,0.0138,0.0089,0.0212,0.0003,0.0001,0.0,-0.0001,-0.0002,-0.0002,0.0276,0.0294,0.0315,0.039,0.0453,0.0439,0.0527,0.0457,0.0337,0.0361,0.0356,0.0355,0.0199,0.0357,0.0358,0.0358,0.0359,0.0359,0.036,0.0345,0.0372,0.0449,0.0514,0.0577,0.0668,0.0685,0.0684,0.0612,0.0511,0.051,0.0255,0.0243,0.022,0.0369,0.0367,0.0366,0.0365,0.0365,0.0452,0.0457,0.0591,0.0661,0.0821,0.0974,0.0966,0.0968,0.0914,0.0883,0.0582,0.0574,0.0545,0.0526,0.051,0.0726,0.0726,0.0726,0.0726,0.0524,0.0535,0.0721,0.0865,0.1038,0.1124,0.1277,0.1197,0.0989,0.0838,0.0833,0.0761,0.0745,0.072,0.0697,0.0681,0.0942,0.0942,0.0942,0.0603,0.0655,0.0805,0.094,0.1129,0.1293,0.1419,0.1316,0.1024,0.0947,0.0828,0.0749,0.0625,0.0607,0.0545,0.0518,0.0482,0,0]}],[{"header":{"parameterUnit":"m.s-1","parameterCategory":2,"la1":30.2992,"la2":30.254,"lo1":-89.0895,"lo2":-89.0443,"dy":0.0025,"dx":0.0025,"nx":19,"ny":19,"refTime":"2026-03-27T09:00:00:Z","depth":"4","parameterNumber":2,"parameterNumberName":"U-component_of_CURRENTS"},"data":[0,0,0,0.1682,0.1687,0.1894,0.1895,0.2034,0.2035,0,0,0,0,0,0,0,0,0,0,0,0.1619,0.1621,0.1682,0.1687,0.1894,0.1895,0.2034,0.2035,0,0,0,0,0,0,0,0,0,0,0,0.1619,0.1621,0.1623,0.1688,0.1894,0.1895,0.2034,0.1909,0,0,0,0,0,0,0,0,0,0,0.1724,0.1685,0.162,0.1623,0.1689,0.1894,0.1895,0.1905,0.1917,0.1904,0,0.1951,0,0.1989,0.2041,0.2042,0,0,0,0.169,0.1675,0.1728,0.1623,0.1691,0.1893,0.1801,0.1913,0.1926,0.1919,0.1953,0.1959,0.1992,0.2042,0.2042,0.2216,0.2218,0,0,0.1678,0.1655,0.1719,0.1737,0.1762,0.1795,0.1808,0.1922,0.1942,0.1954,0.1963,0.1994,0.2043,0.2043,0.2215,0.2217,0,0,0,0.1644,0.1647,0.17,0.173,0.1775,0.1801,0.1816,0.1938,0.1956,0.1965,0.1996,0.2043,0.2044,0.2214,0.2216,0.2266,0,0,0,0.1637,0.1627,0.1695,0.1683,0.1774,0.1876,0.1828,0.1948,0.1963,0.1995,0.2043,0.2045,0.2213,0.2215,0.2261,0.2285,0,0,0,0.1607,0.1623,0.1652,0.1681,0.1769,0.1876,0.1902,0.1953,0.198,0.2042,0.2045,0.2212,0.2214,0.2258,0.2279,0.2368,0,0,0,0.1567,0.1613,0.1653,0.1721,0.1767,0.1899,0.1902,0.1999,0.2057,0.2044,0.2213,0.2216,0.2256,0.2276,0.2364,0.2035,0,0,0,0.1592,0.1615,0.1654,0.1695,0.1804,0.1869,0.1995,0.2063,0.2095,0.2163,0.2168,0.2263,0.2279,0.2367,0.2208,0,0,0,0,0.164,0.1674,0.1711,0.1797,0.1891,0.1998,0.2082,0.2127,0.2236,0.2145,0.2308,0.2317,0.2371,0.2168,0.223,0.2229,0.2229,0.2229,0.2228,0.1652,0.1707,0.1779,0.1867,0.1958,0.2099,0.2187,0.2276,0.2286,0.2357,0.2391,0.2537,0.2327,0.2427,0.2428,0.2428,0.2428,0.2428,0.2429,0.1682,0.1711,0.1818,0.1903,0.2027,0.2154,0.2311,0.2359,0.2513,0.2484,0.2534,0.2274,0.2435,0.2434,0.2433,0.2432,0.2431,0.2431,0.2431,0.167,0.1679,0.1765,0.1896,0.2051,0.22,0.2347,0.2485,0.2572,0.264,0.2467,0.2597,0.2557,0.2692,0.2692,0.2693,0.2693,0.2693,0.2694,0.1589,0.1667,0.1742,0.1889,0.1982,0.2164,0.2404,0.2488,0.2621,0.2511,0.2687,0.2626,0.2618,0.2575,0.2702,0.27,0.2699,0.2699,0.2698,0.1508,0.1586,0.1671,0.1758,0.1956,0.2053,0.2309,0.2396,0.248,0.2452,0.2442,0.2453,0.2412,0.241,0.2357,0.2424,0.242,0.2417,0,0.1455,0.1494,0.1611,0.1708,0.181,0.1984,0.2,0.2141,0.2253,0.2178,0.2496,0.2484,0.2488,0.2439,0.2431,0.2367,0,0,0,0.1401,0.1454,0.1509,0.1643,0.1721,0.1836,0.2008,0.1975,0.2232,0.2191,0.2323,0.2347,0.2545,0.2726,0.269,0.268,0.261,0,0]},{"header":{"parameterUnit":"m.s-1","parameterCategory":2,"la1":30.2992,"la2":30.254,"lo1":-89.0895,"lo2":-89.0443,"dy":0.0025,"dx":0.0025,"nx":19,"ny":19,"refTime":"2026-03-27T09:00:00:Z","depth":"4","parameterNumber":3,"parameterNumberName":"V-component_of_CURRENTS"},"data":[0,0,0,0.0268,0.0267,0.0218,0.0217,0.016,0.016,0,0,0,0,0,0,0,0,0,0,0,0.0286,0.0286,0.0268,0.0267,0.0218,0.0217,0.016,0.016,0,0,0,0,0,0,0,0,0,0,0,0.0286,0.0286,0.0286,0.0267,0.0218,0.0217,0.0161,0.0194,0,0,0,0,0,0,0,0,0,0,0.024,0.0266,0.0286,0.0286,0.0267,0.0218,0.0217,0.0195,0.0192,0.0187,0,0.0187,0,0.0176,0.0157,0.0157,0,0,0,0.0257,0.0269,0.0251,0.0286,0.0266,0.0218,0.0237,0.0193,0.0189,0.0183,0.0186,0.0184,0.0175,0.0157,0.0157,0.013,0.013,0,0,0.026,0.0279,0.0254,0.0249,0.0263,0.0239,0.0236,0.0191,0.0194,0.0186,0.0182,0.0174,0.0157,0.0156,0.013,0.013,0,0,0,0.0274,0.0281,0.0264,0.0251,0.0244,0.0238,0.0234,0.0196,0.0189,0.0182,0.0173,0.0156,0.0156,0.013,0.013,0.0213,0,0,0,0.0275,0.029,0.0265,0.0277,0.0245,0.022,0.024,0.0192,0.0186,0.0174,0.0156,0.0156,0.013,0.013,0.0211,0.0267,0,0,0,0.0287,0.0291,0.0287,0.0278,0.026,0.0221,0.0211,0.019,0.0182,0.0157,0.0155,0.013,0.013,0.0209,0.0262,0.0274,0,0,0,0.0305,0.032,0.0288,0.0304,0.0261,0.0253,0.0211,0.0198,0.0181,0.0156,0.013,0.013,0.0208,0.0259,0.0272,0.0293,0,0,0,0.0336,0.0324,0.0334,0.0304,0.0319,0.0258,0.0271,0.0227,0.0177,0.0143,0.0142,0.0212,0.0262,0.0273,0.0293,0,0,0,0,0.0352,0.0358,0.0358,0.0356,0.0336,0.0332,0.0275,0.0247,0.0208,0.0168,0.0189,0.0218,0.0222,0.0226,0.013,0.013,0.013,0.013,0.013,0.0395,0.0389,0.0418,0.041,0.0405,0.0373,0.036,0.0306,0.0252,0.0239,0.0268,0.0313,0.0318,0.0236,0.0236,0.0236,0.0237,0.0237,0.0237,0.0445,0.0467,0.0464,0.0493,0.0486,0.049,0.0443,0.0405,0.037,0.0317,0.0316,0.0292,0.0245,0.0243,0.0242,0.0241,0.0241,0.024,0.024,0.0473,0.0491,0.0508,0.0561,0.0594,0.0581,0.0613,0.0556,0.0458,0.0462,0.0429,0.0363,0.0375,0.0449,0.0449,0.045,0.045,0.045,0.045,0.0504,0.0525,0.0582,0.0636,0.0684,0.0737,0.072,0.0688,0.0594,0.0534,0.0485,0.0384,0.0377,0.0385,0.0455,0.0454,0.0454,0.0453,0.0453,0.0554,0.0564,0.0654,0.0712,0.0828,0.086,0.0854,0.0771,0.0733,0.0659,0.0551,0.0545,0.0515,0.0505,0.0516,0.0627,0.0628,0.0628,0,0.0589,0.0598,0.0715,0.0815,0.0914,0.0932,0.0913,0.0861,0.0724,0.0715,0.0705,0.0587,0.058,0.0548,0.054,0.0555,0,0,0,0.0632,0.0659,0.0745,0.0837,0.0943,0.093,0.0909,0.0867,0.0758,0.0711,0.0642,0.0638,0.0563,0.0469,0.0407,0.0399,0.0409,0,0]}]]